Location: Unspecified
(0.0000°N, 0.0000°E)
Time: 05:27:48
(UTC+00:00)

Transit 2A - Pass Details

Date: 01 October 2020
Orbit: 593 x 966 km, 66.7° (Epoch: 28 October)

Event Time Altitude Azimuth Distance (km) Brightness Sun altitude
Rises 19:02:00 0° 304° (NW) 3,132 10.0 -18.1°
Reaches altitude 10° 19:06:03 10° 272° (W) 2,120 9.5 -19.1°
Maximum altitude 19:07:42 12° 252° (WSW) 1,975 9.2 -19.5°
Drops below altitude 10° 19:09:19 10° 231° (SW) 2,055 9.0 -19.9°
Sets 19:13:05 0° 198° (SSW) 2,900 9.3 -20.9°
